Location: ???????
(55.4362°N, 38.1183°E)
Time: 06:23:51
(UTC+00:00)

Nauka - Pass Details

Date: 27 September 2021
Orbit: 417 x 423 km, 51.6° (Epoch: 23 October)

Event Time Altitude Azimuth Distance (km) Brightness Sun altitude
Rises 16:37:22 0° 266° (W) 2,364 ? -12.6°
Reaches altitude 10° 16:39:31 10° 259° (W) 1,501 ? -12.9°
Maximum altitude 16:42:43 41° 188° (S) 625 ? -13.4°
Enters shadow 16:44:18 24° 132° (SE) 921 ? -13.6°
